Notice: Undefined offset: 1 in /var/www/vhosts/5/103384/webspace/httpdocs/santgenismeteo.org/weather28/metar/wsMetarTxt.php on line 82 Notice: Undefined offset: 1 in /var/www/vhosts/5/103384/webspace/httpdocs/santgenismeteo.org/weather28/metar/wsMetarTxt.php on line 88 Notice: Array to string conversion in /var/www/vhosts/5/103384/webspace/httpdocs/santgenismeteo.org/weather28/metar/wsMetarTxt.php on line 93
No particular awareness of the weather is required.    There are no Weather-warnings




My webcam more information My webcam


Meteosat more information Meteosat


Radar de pluja more information rain snow radar


Visita la nostra xarxa de llocs de meteo:

Template documentation
and downloads

And another site



Select another period ( hide this area )

Unitats Periode Custom range Directly to
Mètric Imperial Tant
Diari Setmana Mensual Anual
use both date-selectors for a custom range
previous Dia
With this date

WeatherUnderground graphs for this period ( click here )


Warning: Division by zero in /var/www/vhosts/5/103384/webspace/httpdocs/santgenismeteo.org/weather28/wu/WU-History4.php on line 835
Diari Resum Divendres 26 Abril 2019
Temps Temp. ( °C ) Dew pt. ( °C ) Vent ( km/h ) des Rafegues ( km/h ) Pression baro ( hPa ) Humid.( % ) Rainrate ( cm ) Solar ( W/m2 )
Maxima20,9 4,6 28,0 Est ( 416/1100 ) 28,0 1018,5 50 - 0
Media14,7 2,4 5,8 Est #65/189 -16,2 1015,2 44 - 0 #0/189
Minima11,6 1,0 -   -1607,4 1011,4 33 -  
Diari Tabular details for Divendres 26 Abril 2019
Temps Temp. ( °C ) Dew pt. ( °C ) Vent ( km/h ) des Rafegues ( km/h ) Pression baro ( hPa ) Humid.( % ) Rainrate ( cm ) Solar ( W/m2 )
00:02 14,2 3,3 4,3 Est 11,6 1011,4 48 - -
00:07 14,2 3,3 9,0 West 9,0 1011,4 48 - -
00:12 14,1 3,3 1,4 West 4,3 1011,4 48 - -
00:17 14,0 3,2 9,0 NW 9,3 1011,4 48 - -
00:22 13,9 3,4 4,3 SW 4,3 1011,4 49 - -
00:27 13,9 3,4 2,6 WNW 7,6 1012,4 49 - -
00:32 13,9 3,4   calma 6,9 1012,4 49 - -
00:37 13,9 3,4   calma 5,0 1012,4 49 - -
00:42 13,8 3,3 1,8 Est 9,3 1013,4 49 - -
00:47 13,8 3,3 9,3 WSW 10,5 1013,4 49 - -
00:52 13,7 3,2 2,6 NNE 12,2 1013,4 49 - -
00:57 13,7 3,2 15,4 West 15,4 1013,4 49 - -
01:02 13,7 3,2 5,8 West 8,7 1013,4 49 - -
01:07 13,7 3,2 2,1 NE 5,8 1013,4 49 - -
01:12 13,7 3,2 9,0 West 9,0 1013,4 49 - -
01:17 13,7 3,2 5,5 Est 5,5 1013,4 49 - -
01:22 13,7 3,2 2,1 Est 11,6 1013,4 49 - -
01:27 13,7 3,2 1,8 Est 8,7 1013,4 49 - -
01:32 13,6 3,1 4,3 Est 6,4 1013,4 49 - -
01:37 13,6 3,1 6,1 Est 6,9 1013,4 49 - -
01:42 13,5 3,0 4,0 NW 5,8 1013,4 49 - -
01:47 13,5 3,0 10,5 Est 10,5 1013,4 49 - -
01:52 13,4 2,9 3,2 West 5,0 1013,4 49 - -
01:57 13,4 2,9 8,7 Est 8,7 1013,4 49 - -
02:02 13,3 2,8 1,4 West 9,0 1013,4 49 - -
02:07 13,3 2,8 2,1 West 11,1 1013,4 49 - -
02:12 13,3 2,8 6,4 West 6,4 1013,4 49 - -
02:17 13,2 2,7 1,4 WNW 7,6 1013,4 49 - -
02:22 13,1 2,6 5,5 West 12,6 1013,4 49 - -
02:27 13,1 2,6 10,1 West 10,1 1014,4 49 - -
02:32 13,1 2,6 4,0 Est 9,0 1014,4 49 - -
02:37 13,0 2,5   calma 6,4 1014,4 49 - -
02:42 13,0 2,5 4,7 Est 6,9 1013,4 49 - -
02:47 12,9 2,7   calma 6,1 1013,4 50 - -
02:52 12,9 2,4 4,3 Est 5,8 1013,4 49 - -
02:57 12,9 2,4   calma 4,0 1013,4 49 - -
03:02 12,8 2,3 5,0 ESE 7,6 1013,4 49 - -
03:07 12,8 2,3 6,1 Est 12,6 1013,4 49 - -
03:12 12,8 2,3   calma 4,0 1012,4 49 - -
03:17 12,7 2,3 4,0 West 7,9 1012,4 49 - -
03:22 12,7 2,3 9,3 Est 9,3 1012,4 49 - -
03:27 12,7 2,3 7,9 Est 11,1 1012,4 49 - -
03:32 12,7 2,0 4,7 West 6,1 1012,4 48 - -
03:37 12,8 2,1 2,6 West 6,1 1012,4 48 - -
03:42 12,7 2,0 2,6 Est 8,7 1012,4 48 - -
03:47 12,8 2,1 5,8 Est 10,1 1012,4 48 - -
03:52 12,8 2,1 2,6 ESE 15,1 1012,4 48 - -
03:57 12,8 1,8 11,6 ESE 13,0 1012,4 47 - -
04:02 12,8 1,8 5,8 SSW 16,6 1012,4 47 - -
04:07 12,7 1,7 6,9 WSW 9,3 1012,4 47 - -
04:12 12,7 1,7   calma 9,7 1012,4 47 - -
04:17 12,7 1,7 6,9 West 9,7 1012,4 47 - -
04:22 12,6 1,6 2,1 West 8,7 1012,4 47 - -
04:27 12,5 1,5 3,2 West 11,9 1013,4 47 - -
04:32 12,5 1,5 4,0 West 10,1 1013,4 47 - -
04:37 12,4 1,4 4,3 West 13,0 1013,4 47 - -
04:42 12,4 1,4 5,5 Est 20,6 1012,4 47 - -
04:47 12,5 1,5 17,7 ENE 17,7 1012,4 47 - -
04:52 12,6 1,6 2,6 West 9,3 1012,4 47 - -
04:57 12,7 1,7 9,7 WNW 9,7 1012,4 47 - -
05:02 12,6 1,6 9,7 WNW 9,7 1012,4 47 - -
05:07 12,6 1,6 11,9 Est 11,9 1012,4 47 - -
05:12 12,5 1,5 11,9 Est 11,9 1013,4 47 - -
05:17 12,4 1,4 1,8 West 12,2 1013,4 47 - -
05:22 12,3 1,3 9,3 Est 10,1 1013,4 47 - -
05:27 12,2 1,2 10,1 SE 10,8 1013,4 47 - -
05:32 12,2 1,2 3,5 NW 6,9 1013,4 47 - -
05:37 12,1 1,1 5,5 SSW 12,2 1013,4 47 - -
05:42 12,1 1,1 5,8 WNW 6,1 1013,4 47 - -
05:47 12,0 1,0 2,6 NE 6,9 1013,4 47 - -
05:52 12,0 1,0 4,0 WSW 9,3 1013,4 47 - -
05:57 11,9 1,2   calma 1,4 1014,4 48 - -
06:02 11,8 1,1 3,2 Est 4,7 1014,4 48 - -
06:07 11,8 1,1 2,1 WSW 4,7 1014,4 48 - -
06:12 11,8 1,1 5,5 West 5,5 1014,4 48 - -
06:17 11,7 1,0 5,5 Est 9,0 1014,4 48 - -
06:22 11,6 1,0 11,6 WSW 11,6 1014,4 48 - -
06:27 11,6 1,0 6,4 Est 16,6 1014,4 48 - -
06:32 11,6 1,0 3,2 West -1607,4 1014,4 48 - -
06:37 11,6 1,0 5,5 Est 5,5 1014,4 48 - -
06:42 11,6 1,0 13,0 West 13,0 1014,4 48 - -
06:47 11,7 1,0 8,7 Est 17,7 1014,4 48 - -
06:52 11,7 1,0 10,1 Est 10,1 1014,4 48 - -
06:57 11,7 1,0 13,0 West 13,0 1014,4 48 - -
07:02 11,7 1,0 3,5 Est 12,2 1014,4 48 - -
07:07 11,7 1,0 6,9 WNW 12,2 1014,4 48 - -
07:12 11,7 1,0   calma 1,4 1014,4 48 - -
07:17 11,6 1,0 4,7 West 9,0 1014,4 48 - -
07:22 11,7 1,0 6,9 NW 11,1 1014,4 48 - -
07:27 11,7 1,0 11,6 ENE 11,6 1014,4 48 - -
07:32 11,7 1,0 1,4 Est 1,4 1014,4 48 - -
07:37 11,7 1,0 1,4 Est 1,4 1014,4 48 - -
07:42 11,8 1,1 1,4 Est 1,4 1015,5 48 - -
07:47 11,8 1,1 4,7 West 15,4 1015,5 48 - -
07:52 11,8 1,1 8,7 West 20,6 1015,5 48 - -
07:57 11,9 1,2 5,8 West 11,1 1015,5 48 - -
08:02 12,0 1,0 12,2 ENE 16,3 1015,5 47 - -
08:07 12,2 1,2 7,9 NNW 10,5 1015,5 47 - -
08:12 12,2 1,2 13,0 West 13,0 1014,4 47 - -
08:17 12,3 1,3 5,5 WNW 12,6 1014,4 47 - -
08:22 12,4 1,4 9,0 Est 16,9 1014,4 47 - -
08:27 12,4 1,4 12,2 ESE 16,6 1015,5 47 - -
08:32 12,5 1,5 4,0 Est 11,9 1015,5 47 - -
08:37 12,6 1,6 6,4 Est 10,1 1015,5 47 - -
08:42 12,7 1,7 6,1 West 19,8 1015,5 47 - -
08:47 12,7 1,7 4,7 ENE 16,3 1015,5 47 - -
08:52 12,8 1,8 9,3 Est 12,2 1015,5 47 - -
08:57 12,8 1,8 9,0 Est 13,7 1015,5 47 - -
09:02 12,9 1,9 3,2 Est 10,1 1015,5 47 - -
09:07 13,0 1,9 3,2 West 11,1 1015,5 47 - -
09:12 13,1 2,0 15,8 West 17,2 1016,5 47 - -
09:17 13,2 2,1 6,1 NE 16,9 1016,5 47 - -
09:22 13,3 2,2 2,6 NE 2,6 1016,5 47 - -
09:27 13,5 2,1 9,3 Est 9,3 1016,5 46 - -
09:32 13,6 2,2 2,1 NNE 6,9 1016,5 46 - -
09:37 13,7 2,3 6,9 ENE 15,8 1016,5 46 - -
09:42 13,8 2,4 21,2 NE 21,2 1017,5 46 - -
09:47 13,9 2,5 10,1 Est 10,5 1017,5 46 - -
09:52 14,0 2,2 6,1 Est 13,0 1017,5 45 - -
09:57 14,1 2,3 9,0 WNW 13,7 1017,5 45 - -
10:02 14,3 2,5 9,7 Est 10,8 1017,5 45 - -
10:07 14,4 2,6 28,0 West 28,0 1017,5 45 - -
10:12 14,6 2,8 16,3 ENE 19,1 1017,5 45 - -
10:17 14,8 3,0 5,5 ENE 5,5 1017,5 45 - -
10:22 14,9 2,8 6,4 Est 14,8 1017,5 44 - -
10:27 15,1 2,9 6,4 Est 6,4 1016,5 44 - -
10:32 15,2 3,0 6,1 West 6,1 1016,5 44 - -
10:37 15,4 2,9 9,3 Est 9,3 1016,5 43 - -
10:42 15,5 2,6 9,7 NNE 16,6 1017,5 42 - -
10:47 15,6 2,7 3,2 Est 22,4 1017,5 42 - -
10:52 15,7 2,8 2,6 West 2,6 1017,5 42 - -
10:57 15,9 3,0 10,5 Est 10,5 1017,5 42 - -
11:02 16,0 2,7   calma   1017,5 41 - -
11:07 16,1 2,8 16,6 Est 16,6 1017,5 41 - -
11:12 16,4 3,1   calma 8,7 1016,5 41 - -
11:17 16,6 3,3 5,0 West 9,0 1016,5 41 - -
11:22 16,6 2,9 1,8 SW 14,0 1016,5 40 - -
11:27 16,8 3,1 1,4 WNW 4,3 1017,5 40 - -
11:32 16,9 3,2 5,8 West 5,8 1017,5 40 - -
11:37 17,1 3,0 10,5 Est 10,5 1017,5 39 - -
11:42 17,2 2,8 5,5 Est 5,8 1017,5 38 - -
11:47 17,3 3,2   calma 2,1 1017,5 39 - -
11:52 17,5 3,0 4,7 West 7,9 1017,5 38 - -
11:57 17,4 2,9 6,9 SE 8,7 1018,5 38 - -
12:02 17,4 2,9 5,0 West 9,0 1018,5 38 - -
12:07 17,4 2,6 4,3 NE 8,7 1018,5 37 - -
12:12 17,5 2,6 4,0 Est 5,0 1018,5 37 - -
12:17 17,7 2,8 6,1 West 6,9 1018,5 37 - -
12:22 17,8 2,9 6,1 Est 6,9 1018,5 37 - -
12:27 17,9 3,0 5,0 Est 9,0 1017,5 37 - -
12:32 18,0 3,1 6,1 West 6,1 1017,5 37 - -
12:37 18,1 2,8 4,0 WNW 8,7 1017,5 36 - -
12:42 18,3 3,0 6,4 West 16,9 1017,5 36 - -
12:47 18,3 3,0 4,7 Est 14,3 1017,5 36 - -
12:52 18,4 3,1 2,6 West 11,9 1017,5 36 - -
12:57 18,4 3,1 13,0 NW 13,0 1017,5 36 - -
13:02 18,3 3,0 5,0 Est 5,0 1017,5 36 - -
13:07 18,4 3,1 4,3 West 4,3 1017,5 36 - -
13:12 18,5 3,1 5,0 Est 6,1 1017,5 36 - -
13:17 18,8 3,4 8,7 Est 16,6 1017,5 36 - -
13:22 19,1 3,7   calma 6,4 1017,5 36 - -
13:27 19,0 3,2 10,1 Est 10,1 1017,5 35 - -
13:32 19,2 3,4 5,8 Est 5,8 1017,5 35 - -
13:37 19,2 3,4 5,8 SE 5,8 1017,5 35 - -
13:42 19,2 3,4 5,0 West 6,9 1017,5 35 - -
13:47 19,2 3,4 6,1 WNW 16,3 1017,5 35 - -
13:52 19,2 3,4 1,8 West 10,5 1017,5 35 - -
13:57 19,2 3,4 4,3 SW 8,7 1017,5 35 - -
14:02 19,4 3,5 14,0 West 14,0 1017,5 35 - -
14:07 19,4 3,5 6,1 WSW 6,1 1017,5 35 - -
14:12 19,5 3,6 1,4 WSW 1,4 1017,5 35 - -
14:17 19,7 3,8 6,4 West 6,4 1017,5 35 - -
14:22 19,7 3,8 6,4 Est 6,4 1017,5 35 - -
14:27 19,7 3,8   calma   1017,5 35 - -
14:32 19,8 3,9 1,8 WNW 1,8 1017,5 35 - -
14:37 19,7 3,4 5,5 Est 5,5 1017,5 34 - -
14:42 19,6 3,7 5,5 Est 5,5 1017,5 35 - -
14:47 19,6 3,7 5,5 Est 5,5 1017,5 35 - -
14:52 19,8 3,9 5,5 Est 5,5 1017,5 35 - -
14:57 20,0 3,7 5,5 Est -1607,4 1017,5 34 - -
15:02 20,4 4,0   calma 3,5 1017,5 34 - -
15:07 20,4 4,0 3,2 ENE 3,2 1017,5 34 - -
15:12 20,4 3,6 3,2 ENE 3,2 1017,5 33 - -
15:17 20,6 3,8 3,2 ENE 3,2 1017,5 33 - -
15:22 20,7 4,3 3,2 ENE -1607,4 1017,5 34 - -
15:27 20,9 4,0 3,5 West 3,5 1017,5 33 - -
15:32 20,6 4,2   calma   1017,5 34 - -
15:37 20,3 3,5 1,4 WNW 13,0 1017,5 33 - -
15:42 20,6 4,6 7,9 Est 9,0 1017,5 35 - -
Diari Resum Divendres 26 Abril 2019
Temps Temp. ( °C ) Dew pt. ( °C ) Vent ( km/h ) des Rafegues ( km/h ) Pression baro ( hPa ) Humid.( % ) Rainrate ( cm ) Solar ( W/m2 )
Maxima20,9 4,6 28,0 Est ( 416/1100 ) 28,0 1018,5 50 - 0
Media14,7 2,4 5,8 Est #65/189 -16,2 1015,2 44 - 0 #0/189
Minima11,6 1,0 -   -1607,4 1011,4 33 -  
Diari Tabular details for Divendres 26 Abril 2019
Temps Temp. ( °C ) Dew pt. ( °C ) Vent ( km/h ) des Rafegues ( km/h ) Pression baro ( hPa ) Humid.( % ) Rainrate ( cm ) Solar ( W/m2 )
00:02 14,2 3,3 4,3 Est 11,6 1011,4 48 - -
00:07 14,2 3,3 9,0 West 9,0 1011,4 48 - -
00:12 14,1 3,3 1,4 West 4,3 1011,4 48 - -
00:17 14,0 3,2 9,0 NW 9,3 1011,4 48 - -
00:22 13,9 3,4 4,3 SW 4,3 1011,4 49 - -
00:27 13,9 3,4 2,6 WNW 7,6 1012,4 49 - -
00:32 13,9 3,4   calma 6,9 1012,4 49 - -
00:37 13,9 3,4   calma 5,0 1012,4 49 - -
00:42 13,8 3,3 1,8 Est 9,3 1013,4 49 - -
00:47 13,8 3,3 9,3 WSW 10,5 1013,4 49 - -
00:52 13,7 3,2 2,6 NNE 12,2 1013,4 49 - -
00:57 13,7 3,2 15,4 West 15,4 1013,4 49 - -
01:02 13,7 3,2 5,8 West 8,7 1013,4 49 - -
01:07 13,7 3,2 2,1 NE 5,8 1013,4 49 - -
01:12 13,7 3,2 9,0 West 9,0 1013,4 49 - -
01:17 13,7 3,2 5,5 Est 5,5 1013,4 49 - -
01:22 13,7 3,2 2,1 Est 11,6 1013,4 49 - -
01:27 13,7 3,2 1,8 Est 8,7 1013,4 49 - -
01:32 13,6 3,1 4,3 Est 6,4 1013,4 49 - -
01:37 13,6 3,1 6,1 Est 6,9 1013,4 49 - -
01:42 13,5 3,0 4,0 NW 5,8 1013,4 49 - -
01:47 13,5 3,0 10,5 Est 10,5 1013,4 49 - -
01:52 13,4 2,9 3,2 West 5,0 1013,4 49 - -
01:57 13,4 2,9 8,7 Est 8,7 1013,4 49 - -
02:02 13,3 2,8 1,4 West 9,0 1013,4 49 - -
02:07 13,3 2,8 2,1 West 11,1 1013,4 49 - -
02:12 13,3 2,8 6,4 West 6,4 1013,4 49 - -
02:17 13,2 2,7 1,4 WNW 7,6 1013,4 49 - -
02:22 13,1 2,6 5,5 West 12,6 1013,4 49 - -
02:27 13,1 2,6 10,1 West 10,1 1014,4 49 - -
02:32 13,1 2,6 4,0 Est 9,0 1014,4 49 - -
02:37 13,0 2,5   calma 6,4 1014,4 49 - -
02:42 13,0 2,5 4,7 Est 6,9 1013,4 49 - -
02:47 12,9 2,7   calma 6,1 1013,4 50 - -
02:52 12,9 2,4 4,3 Est 5,8 1013,4 49 - -
02:57 12,9 2,4   calma 4,0 1013,4 49 - -
03:02 12,8 2,3 5,0 ESE 7,6 1013,4 49 - -
03:07 12,8 2,3 6,1 Est 12,6 1013,4 49 - -
03:12 12,8 2,3   calma 4,0 1012,4 49 - -
03:17 12,7 2,3 4,0 West 7,9 1012,4 49 - -
03:22 12,7 2,3 9,3 Est 9,3 1012,4 49 - -
03:27 12,7 2,3 7,9 Est 11,1 1012,4 49 - -
03:32 12,7 2,0 4,7 West 6,1 1012,4 48 - -
03:37 12,8 2,1 2,6 West 6,1 1012,4 48 - -
03:42 12,7 2,0 2,6 Est 8,7 1012,4 48 - -
03:47 12,8 2,1 5,8 Est 10,1 1012,4 48 - -
03:52 12,8 2,1 2,6 ESE 15,1 1012,4 48 - -
03:57 12,8 1,8 11,6 ESE 13,0 1012,4 47 - -
04:02 12,8 1,8 5,8 SSW 16,6 1012,4 47 - -
04:07 12,7 1,7 6,9 WSW 9,3 1012,4 47 - -
04:12 12,7 1,7   calma 9,7 1012,4 47 - -
04:17 12,7 1,7 6,9 West 9,7 1012,4 47 - -
04:22 12,6 1,6 2,1 West 8,7 1012,4 47 - -
04:27 12,5 1,5 3,2 West 11,9 1013,4 47 - -
04:32 12,5 1,5 4,0 West 10,1 1013,4 47 - -
04:37 12,4 1,4 4,3 West 13,0 1013,4 47 - -
04:42 12,4 1,4 5,5 Est 20,6 1012,4 47 - -
04:47 12,5 1,5 17,7 ENE 17,7 1012,4 47 - -
04:52 12,6 1,6 2,6 West 9,3 1012,4 47 - -
04:57 12,7 1,7 9,7 WNW 9,7 1012,4 47 - -
05:02 12,6 1,6 9,7 WNW 9,7 1012,4 47 - -
05:07 12,6 1,6 11,9 Est 11,9 1012,4 47 - -
05:12 12,5 1,5 11,9 Est 11,9 1013,4 47 - -
05:17 12,4 1,4 1,8 West 12,2 1013,4 47 - -
05:22 12,3 1,3 9,3 Est 10,1 1013,4 47 - -
05:27 12,2 1,2 10,1 SE 10,8 1013,4 47 - -
05:32 12,2 1,2 3,5 NW 6,9 1013,4 47 - -
05:37 12,1 1,1 5,5 SSW 12,2 1013,4 47 - -
05:42 12,1 1,1 5,8 WNW 6,1 1013,4 47 - -
05:47 12,0 1,0 2,6 NE 6,9 1013,4 47 - -
05:52 12,0 1,0 4,0 WSW 9,3 1013,4 47 - -
05:57 11,9 1,2   calma 1,4 1014,4 48 - -
06:02 11,8 1,1 3,2 Est 4,7 1014,4 48 - -
06:07 11,8 1,1 2,1 WSW 4,7 1014,4 48 - -
06:12 11,8 1,1 5,5 West 5,5 1014,4 48 - -
06:17 11,7 1,0 5,5 Est 9,0 1014,4 48 - -
06:22 11,6 1,0 11,6 WSW 11,6 1014,4 48 - -
06:27 11,6 1,0 6,4 Est 16,6 1014,4 48 - -
06:32 11,6 1,0 3,2 West -1607,4 1014,4 48 - -
06:37 11,6 1,0 5,5 Est 5,5 1014,4 48 - -
06:42 11,6 1,0 13,0 West 13,0 1014,4 48 - -
06:47 11,7 1,0 8,7 Est 17,7 1014,4 48 - -
06:52 11,7 1,0 10,1 Est 10,1 1014,4 48 - -
06:57 11,7 1,0 13,0 West 13,0 1014,4 48 - -
07:02 11,7 1,0 3,5 Est 12,2 1014,4 48 - -
07:07 11,7 1,0 6,9 WNW 12,2 1014,4 48 - -
07:12 11,7 1,0   calma 1,4 1014,4 48 - -
07:17 11,6 1,0 4,7 West 9,0 1014,4 48 - -
07:22 11,7 1,0 6,9 NW 11,1 1014,4 48 - -
07:27 11,7 1,0 11,6 ENE 11,6 1014,4 48 - -
07:32 11,7 1,0 1,4 Est 1,4 1014,4 48 - -
07:37 11,7 1,0 1,4 Est 1,4 1014,4 48 - -
07:42 11,8 1,1 1,4 Est 1,4 1015,5 48 - -
07:47 11,8 1,1 4,7 West 15,4 1015,5 48 - -
07:52 11,8 1,1 8,7 West 20,6 1015,5 48 - -
07:57 11,9 1,2 5,8 West 11,1 1015,5 48 - -
08:02 12,0 1,0 12,2 ENE 16,3 1015,5 47 - -
08:07 12,2 1,2 7,9 NNW 10,5 1015,5 47 - -
08:12 12,2 1,2 13,0 West 13,0 1014,4 47 - -
08:17 12,3 1,3 5,5 WNW 12,6 1014,4 47 - -
08:22 12,4 1,4 9,0 Est 16,9 1014,4 47 - -
08:27 12,4 1,4 12,2 ESE 16,6 1015,5 47 - -
08:32 12,5 1,5 4,0 Est 11,9 1015,5 47 - -
08:37 12,6 1,6 6,4 Est 10,1 1015,5 47 - -
08:42 12,7 1,7 6,1 West 19,8 1015,5 47 - -
08:47 12,7 1,7 4,7 ENE 16,3 1015,5 47 - -
08:52 12,8 1,8 9,3 Est 12,2 1015,5 47 - -
08:57 12,8 1,8 9,0 Est 13,7 1015,5 47 - -
09:02 12,9 1,9 3,2 Est 10,1 1015,5 47 - -
09:07 13,0 1,9 3,2 West 11,1 1015,5 47 - -
09:12 13,1 2,0 15,8 West 17,2 1016,5 47 - -
09:17 13,2 2,1 6,1 NE 16,9 1016,5 47 - -
09:22 13,3 2,2 2,6 NE 2,6 1016,5 47 - -
09:27 13,5 2,1 9,3 Est 9,3 1016,5 46 - -
09:32 13,6 2,2 2,1 NNE 6,9 1016,5 46 - -
09:37 13,7 2,3 6,9 ENE 15,8 1016,5 46 - -
09:42 13,8 2,4 21,2 NE 21,2 1017,5 46 - -
09:47 13,9 2,5 10,1 Est 10,5 1017,5 46 - -
09:52 14,0 2,2 6,1 Est 13,0 1017,5 45 - -
09:57 14,1 2,3 9,0 WNW 13,7 1017,5 45 - -
10:02 14,3 2,5 9,7 Est 10,8 1017,5 45 - -
10:07 14,4 2,6 28,0 West 28,0 1017,5 45 - -
10:12 14,6 2,8 16,3 ENE 19,1 1017,5 45 - -
10:17 14,8 3,0 5,5 ENE 5,5 1017,5 45 - -
10:22 14,9 2,8 6,4 Est 14,8 1017,5 44 - -
10:27 15,1 2,9 6,4 Est 6,4 1016,5 44 - -
10:32 15,2 3,0 6,1 West 6,1 1016,5 44 - -
10:37 15,4 2,9 9,3 Est 9,3 1016,5 43 - -
10:42 15,5 2,6 9,7 NNE 16,6 1017,5 42 - -
10:47 15,6 2,7 3,2 Est 22,4 1017,5 42 - -
10:52 15,7 2,8 2,6 West 2,6 1017,5 42 - -
10:57 15,9 3,0 10,5 Est 10,5 1017,5 42 - -
11:02 16,0 2,7   calma   1017,5 41 - -
11:07 16,1 2,8 16,6 Est 16,6 1017,5 41 - -
11:12 16,4 3,1   calma 8,7 1016,5 41 - -
11:17 16,6 3,3 5,0 West 9,0 1016,5 41 - -
11:22 16,6 2,9 1,8 SW 14,0 1016,5 40 - -
11:27 16,8 3,1 1,4 WNW 4,3 1017,5 40 - -
11:32 16,9 3,2 5,8 West 5,8 1017,5 40 - -
11:37 17,1 3,0 10,5 Est 10,5 1017,5 39 - -
11:42 17,2 2,8 5,5 Est 5,8 1017,5 38 - -
11:47 17,3 3,2   calma 2,1 1017,5 39 - -
11:52 17,5 3,0 4,7 West 7,9 1017,5 38 - -
11:57 17,4 2,9 6,9 SE 8,7 1018,5 38 - -
12:02 17,4 2,9 5,0 West 9,0 1018,5 38 - -
12:07 17,4 2,6 4,3 NE 8,7 1018,5 37 - -
12:12 17,5 2,6 4,0 Est 5,0 1018,5 37 - -
12:17 17,7 2,8 6,1 West 6,9 1018,5 37 - -
12:22 17,8 2,9 6,1 Est 6,9 1018,5 37 - -
12:27 17,9 3,0 5,0 Est 9,0 1017,5 37 - -
12:32 18,0 3,1 6,1 West 6,1 1017,5 37 - -
12:37 18,1 2,8 4,0 WNW 8,7 1017,5 36 - -
12:42 18,3 3,0 6,4 West 16,9 1017,5 36 - -
12:47 18,3 3,0 4,7 Est 14,3 1017,5 36 - -
12:52 18,4 3,1 2,6 West 11,9 1017,5 36 - -
12:57 18,4 3,1 13,0 NW 13,0 1017,5 36 - -
13:02 18,3 3,0 5,0 Est 5,0 1017,5 36 - -
13:07 18,4 3,1 4,3 West 4,3 1017,5 36 - -
13:12 18,5 3,1 5,0 Est 6,1 1017,5 36 - -
13:17 18,8 3,4 8,7 Est 16,6 1017,5 36 - -
13:22 19,1 3,7   calma 6,4 1017,5 36 - -
13:27 19,0 3,2 10,1 Est 10,1 1017,5 35 - -
13:32 19,2 3,4 5,8 Est 5,8 1017,5 35 - -
13:37 19,2 3,4 5,8 SE 5,8 1017,5 35 - -
13:42 19,2 3,4 5,0 West 6,9 1017,5 35 - -
13:47 19,2 3,4 6,1 WNW 16,3 1017,5 35 - -
13:52 19,2 3,4 1,8 West 10,5 1017,5 35 - -
13:57 19,2 3,4 4,3 SW 8,7 1017,5 35 - -
14:02 19,4 3,5 14,0 West 14,0 1017,5 35 - -
14:07 19,4 3,5 6,1 WSW 6,1 1017,5 35 - -
14:12 19,5 3,6 1,4 WSW 1,4 1017,5 35 - -
14:17 19,7 3,8 6,4 West 6,4 1017,5 35 - -
14:22 19,7 3,8 6,4 Est 6,4 1017,5 35 - -
14:27 19,7 3,8   calma   1017,5 35 - -
14:32 19,8 3,9 1,8 WNW 1,8 1017,5 35 - -
14:37 19,7 3,4 5,5 Est 5,5 1017,5 34 - -
14:42 19,6 3,7 5,5 Est 5,5 1017,5 35 - -
14:47 19,6 3,7 5,5 Est 5,5 1017,5 35 - -
14:52 19,8 3,9 5,5 Est 5,5 1017,5 35 - -
14:57 20,0 3,7 5,5 Est -1607,4 1017,5 34 - -
15:02 20,4 4,0   calma 3,5 1017,5 34 - -
15:07 20,4 4,0 3,2 ENE 3,2 1017,5 34 - -
15:12 20,4 3,6 3,2 ENE 3,2 1017,5 33 - -
15:17 20,6 3,8 3,2 ENE 3,2 1017,5 33 - -
15:22 20,7 4,3 3,2 ENE -1607,4 1017,5 34 - -
15:27 20,9 4,0 3,5 West 3,5 1017,5 33 - -
15:32 20,6 4,2   calma   1017,5 34 - -
15:37 20,3 3,5 1,4 WNW 13,0 1017,5 33 - -
15:42 20,6 4,6 7,9 Est 9,0 1017,5 35 - -

Download your copy of this data-set  here

Our weather-data as stored at Weather Underground. Guio original per Jim McMurry. Adaptat per a la plantilla per Leuven-Template.eu

Trobareu la nostra informacio del temps tambe a:

European Weather Network

WeatherCloud

Weather Underground

Meteoclimatic

Equip utilitzat:

Weather-program
Weather Display

Weather-server
RaspberryPI 2

Proveidor

Weather Display

RaspberryPI 2